Weather History for Zvartnots, Armenia

Change the Weather History Date:

Monday, February 18, 2013

  Actual Average Record
Temperature  
Mean Temperature 40 °F -  
Max Temperature 48 °F - - ()
Min Temperature 32 °F - - ()
Degree Days  
Heating Degree Days 25    
Moisture  
Dew Point 30 °F    
Average Humidity 72    
Maximum Humidity 100    
Minimum Humidity 37    
Precipitation  
Precipitation 0.00 in - - ()
Sea Level Pressure  
Sea Level Pressure 29.94 in    
Wind  
Wind Speed 1 mph ()    
Max Wind Speed 7 mph    
Max Gust Speed -    
Visibility 5.1 miles    
Events Rain , Snow    
T = Trace of Precipitation, MM = Missing Value Source: Averaged Metar Reports

Daily Weather History Graph

Daily Weather History Graph

Search for Another Location

Airport:

Trip Planner

Search our weather history database for the weather conditions in past years. The results will help you decide how hot, cold, wet, or windy it might be!

Date:

Astronomy

Feb. 18, 2013 Rise Set
Actual Time 7:51 AM AMT 6:41 PM AMT
Civil Twilight 7:24 AM AMT 7:09 PM AMT
Nautical Twilight 6:52 AM AMT 7:40 PM AMT
Astronomical Twilight 6:20 AM AMT 8:12 PM AMT
Moon 12:11 PM AMT (2/18) 2:11 AM AMT (2/18)
Length of Visible Light 11h 45m
Length of Day
10h 49m
First Quarter, 54% of the Moon is Illuminated
Feb 18
First Quarter
Feb 26
Full
Mar 5
Last Quarter
Mar 11
New
Mar 19
First Quarter

Hourly Weather History & Observations

Time (AMT) Temp. Windchill Dew Point Humidity Pressure Visibility Wind Dir Wind Speed Gust Speed Precip Events Conditions
12:00 AM 33.8 °F - 30.2 °F 87% 29.92 in 3.7 mi Variable 2.2 mph - N/A   Mostly Cloudy
12:30 AM 33.8 °F - 32.0 °F 93% 29.92 in 3.7 mi Calm Calm - N/A   Mostly Cloudy
1:00 AM 33.8 °F - 30.2 °F 87% 29.95 in 3.7 mi Variable 2.2 mph - N/A   Mostly Cloudy
1:30 AM 32.0 °F - 30.2 °F 93% 29.95 in 3.7 mi Variable 2.2 mph - N/A   Mostly Cloudy
2:00 AM 32.0 °F - 30.2 °F 93% 29.95 in 3.7 mi Calm Calm - N/A   Mostly Cloudy
2:30 AM 32.0 °F - 30.2 °F 93% 29.92 in 3.7 mi Variable 2.2 mph - N/A   Mostly Cloudy
3:00 AM 32.0 °F - 30.2 °F 93% 29.95 in 3.7 mi Calm Calm - N/A   Mostly Cloudy
3:30 AM 32.0 °F - 30.2 °F 93% 29.92 in 3.7 mi Calm Calm - N/A   Mostly Cloudy
4:00 AM 33.8 °F - 30.2 °F 87% 29.92 in 3.7 mi Calm Calm - N/A   Mostly Cloudy
4:30 AM 33.8 °F - 30.2 °F 87% 29.92 in 3.7 mi Variable 2.2 mph - N/A   Mostly Cloudy
5:00 AM 33.8 °F - 30.2 °F 87% 29.92 in 3.7 mi Calm Calm - N/A   Mostly Cloudy
5:30 AM 33.8 °F - 30.2 °F 87% 29.92 in 3.7 mi Variable 2.2 mph - N/A   Mostly Cloudy
6:00 AM 33.8 °F - 32.0 °F 93% 29.92 in 3.7 mi Variable 2.2 mph - N/A Snow Light Snow
6:30 AM 33.8 °F - 32.0 °F 93% 29.95 in 3.7 mi Calm Calm - N/A   Mostly Cloudy
7:00 AM 33.8 °F - 32.0 °F 93% 29.95 in 3.7 mi Calm Calm - N/A   Mostly Cloudy
7:30 AM 33.8 °F - 32.0 °F 93% 29.95 in 3.7 mi Variable 2.2 mph - N/A Rain Light Rain
8:00 AM 33.8 °F - 33.8 °F 100% 29.95 in 3.7 mi Variable 2.2 mph - N/A   Mostly Cloudy
8:30 AM 33.8 °F - 33.8 °F 100% 29.95 in 3.7 mi Calm Calm - N/A   Mostly Cloudy
9:00 AM 35.6 °F - 33.8 °F 93% 29.98 in 3.7 mi Calm Calm - N/A   Mostly Cloudy
9:30 AM 37.4 °F - 35.6 °F 93% 29.98 in 3.7 mi Calm Calm - N/A   Mostly Cloudy
10:00 AM 37.4 °F - 33.8 °F 87% 29.98 in 3.7 mi Calm Calm - N/A   Mostly Cloudy
10:30 AM 39.2 °F - 33.8 °F 81% 29.98 in 6.2 mi Calm Calm - N/A   Mostly Cloudy
11:00 AM 39.2 °F - 35.6 °F 87% 29.98 in 6.2 mi Variable 2.2 mph - N/A   Mostly Cloudy
11:30 AM 41.0 °F - 33.8 °F 76% 29.98 in 6.2 mi Variable 2.2 mph - N/A   Mostly Cloudy
12:00 PM 42.8 °F - 33.8 °F 70% 29.98 in 6.2 mi Calm Calm - N/A   Mostly Cloudy
12:30 PM 42.8 °F - 32.0 °F 66% 29.95 in 6.2 mi Variable 2.2 mph - N/A   Mostly Cloudy
1:00 PM 44.6 °F - 32.0 °F 61% 29.95 in 6.2 mi Variable 2.2 mph - N/A   Mostly Cloudy
1:30 PM 46.4 °F 44.4 °F 32.0 °F 57% 29.95 in 6.2 mi Variable 4.5 mph - N/A   Mostly Cloudy
2:00 PM 46.4 °F - 28.4 °F 50% 29.95 in 6.2 mi Variable 2.2 mph - N/A   Mostly Cloudy
2:30 PM 48.2 °F - 28.4 °F 46% 29.92 in 6.2 mi SW 6.7 mph - N/A   Mostly Cloudy
3:30 PM 46.4 °F 44.4 °F 23.0 °F 40% 29.92 in 6.2 mi Variable 4.5 mph - N/A   Mostly Cloudy
4:00 PM 46.4 °F - 23.0 °F 40% 29.92 in 6.2 mi Variable 2.2 mph - N/A   Mostly Cloudy
4:30 PM 46.4 °F - 23.0 °F 40% 29.92 in 6.2 mi Variable 2.2 mph - N/A   Mostly Cloudy
5:00 PM 46.4 °F - 21.2 °F 37% 29.92 in 6.2 mi Calm Calm - N/A   Mostly Cloudy
5:30 PM 46.4 °F - 21.2 °F 37% 29.92 in 6.2 mi Calm Calm - N/A   Mostly Cloudy
6:00 PM 46.4 °F - 23.0 °F 40% 29.92 in 6.2 mi Calm Calm - N/A   Mostly Cloudy
6:30 PM 44.6 °F - 24.8 °F 46% 29.92 in 6.2 mi Calm Calm - N/A   Mostly Cloudy
7:00 PM 44.6 °F - 24.8 °F 46% 29.92 in 6.2 mi Calm Calm - N/A   Mostly Cloudy
7:30 PM 42.8 °F - 28.4 °F 57% 29.92 in 6.2 mi Calm Calm - N/A   Mostly Cloudy
8:00 PM 42.8 °F - 28.4 °F 57% 29.92 in 6.2 mi Calm Calm - N/A   Mostly Cloudy
8:30 PM 44.6 °F 42.3 °F 23.0 °F 43% 29.95 in 6.2 mi Variable 4.5 mph - N/A   Mostly Cloudy
9:00 PM 42.8 °F - 26.6 °F 53% 29.92 in 6.2 mi Variable 2.2 mph - N/A   Mostly Cloudy
10:00 PM 41.0 °F - 28.4 °F 61% 29.92 in 6.2 mi Variable 2.2 mph - N/A   Mostly Cloudy
10:30 PM 41.0 °F 38.1 °F 30.2 °F 65% 29.89 in 6.2 mi North 4.5 mph - N/A   Mostly Cloudy
11:00 PM 41.0 °F 38.1 °F 30.2 °F 65% 29.89 in 6.2 mi North 4.5 mph - N/A   Mostly Cloudy
11:30 PM 41.0 °F 38.1 °F 30.2 °F 65% 29.89 in 6.2 mi North 4.5 mph - N/A   Mostly Cloudy